Regional Weather Roundup
Issued by NWS

Home | Current Version | Previous Version | Text Only | Print | Product List | Glossary On
Versions: 1 2 3 4 5 6 7 8 9 10 11 12 13 14 15 16 17 18 19 20 21 22 23 24 25 26 27 28 29 30 31 32 33 34 35 36 37 38 39 40 41 42 43 44 45 46 47 48 49 50
000
ASUS43 KLMK 291610
RWRKY
KENTUCKY REGIONAL WEATHER ROUNDUP
NATIONAL WEATHER SERVICE LOUISVILLE KY
1200 PM EDT WED MAR 29 2017

NOTE "FAIR" INDICATES FEW OR NO CLOUDS BELOW 12,000 FEET
WITH NO SIGNIFICANT WEATHER AND/OR OBSTRUCTIONS TO VISIBILITY.

KYZ001>023-026-027-061>063-070>075-291700-
WESTERN AND SOUTH CENTRAL KENTUCKY

CITY           SKY/WX    TMP DP  RH WIND       PRES   REMARKS
PADUCAH        CLOUDY    62  53  72 E10       30.03F
HENDERSON      CLOUDY    63  52  67 SE8       30.10R
OWENSBORO      SUNNY     64  52  64 SE12      30.12R
HOPKINSVILLE   PTSUNNY   64  55  73 E6        30.09R
BOWLING GREEN  MOSUNNY   66  55  67 NE8       30.08R
GLASGOW        MOSUNNY   65  54  68 NE9       30.08S
$$

KYZ024-025-028>034-038-045-046-053-291700-
NORTH CENTRAL KENTUCKY

CITY           SKY/WX    TMP DP  RH WIND       PRES   REMARKS
LOUISVILLE/SDF CLOUDY    56  46  69 NE9       30.15R
LOUISVILLE/LOU CLOUDY    55  46  71 NE8       30.16R
FORT KNOX      CLOUDY    57  49  74 NE12      30.10S
$$

KYZ035>037-039>044-047>052-055>060-089>105-291700-
NORTHEAST KENTUCKY

CITY           SKY/WX    TMP DP  RH WIND       PRES   REMARKS
LEXINGTON      CLOUDY    56  46  69 E14       30.14F
COVINGTON      MOSUNNY   51  39  63 NE12      30.17F
FRANKFORT      CLOUDY    54  45  71 NE12      30.13F
$$

KYZ054-064>069-076>088-106>120-291700-
SOUTHEAST KENTUCKY

CITY           SKY/WX    TMP DP  RH WIND       PRES   REMARKS
JACKSON        CLOUDY    56  48  74 CALM      30.14F
LONDON         MOSUNNY   63  50  62 E6        30.11F
SOMERSET       CLOUDY    63  52  67 E8        30.11S
MIDDLESBORO    SUNNY     67  51  56 SE6       30.10F
MONTICELLO     CLOUDY    64  55  72 VRB7      30.11S
$$




USA.gov is the U.S. government's official web portal to all federal, state and local government web resources and services.